View from above orbital plane
|
View from above satellite
|
Ground track
|
The orbit data is extracted from the following two-line orbital elements,
1 17528U 87018B 21065.78662161 .00000084 00000-0 27853-4 0 9999
2 17528 97.4029 249.9304 0151777 0.5418 359.5916 14.51034696776268
Epoch (UTC): | 06 March 2021 18:52:44 |
Eccentricity: | 0.0151777 |
inclination: | 97.4029° |
perigee height: | 614 km |
apogee height: | 830 km |
right ascension of ascending node: | 249.9304° |
argument of perigee: | 0.5418° |
revolutions per day: | 14.51034696 |
mean anomaly at epoch: | 359.5916° |
orbit number at epoch: | 77626 |
The dashed part of the orbit path shows where the satellite is in the earth's shadow,
|
|